980  
ASUS45 KGGW 100815  
RWRGGW  
HOURLY REGIONAL WEATHER ROUNDUP FOR NORTHEAST MONTANA  
NATIONAL WEATHER SERVICE GLASGOW MONTANA  
100 AM MST MON DEC 10 2018  
 
NOTE: "FAIR" INDICATES FEW OR NO CLOUDS BELOW 12,000 FEET WITH NO  
SIGNIFICANT WEATHER AND/OR S TO VISISBILITY.  
 
NORTHEAST MONTANA  
 
 
CITY SKY/WX TMP DP RH WIND PRES REMARKS
 
GLASGOW FOG 10 7 87 SE3 30.03F VSB 3/4  
PLENTYWOOD N/A 17 16 95 NE3 N/A  
WOLF POINT PTCLDY 8 5 87 SW5 30.06F  
JORDAN N/A 14 9 80 W3 30.03F  
WINNETT N/A 23 12 62 SW3 N/A  
SIDNEY CLEAR 19 16 88 CALM 30.07S  
GLENDIVE CLEAR 22 17 81 S7 30.07F  
MALTA N/A 9 8 96 E1 N/A  
 
FORT PECK REPORTS  
 
 
CITY SKY/WX TMP DP RH WIND PRES REMARKS
 
FORT PECK N/A 19 18 95 W2 N/A  
THE PINES N/A 31 22 69 S3 N/A  
 
SOUTHEAST MONTANA  
 
 
CITY SKY/WX TMP DP RH WIND PRES REMARKS
 
BILLINGS PTCLDY 35 10 35 SW24G35 30.07F  
MILES CITY CLEAR 15 13 91 S6 30.09F  
BAKER CLEAR 24 16 71 W8 30.08F  
LIVINGSTON CLOUDY 37 12 35 W30G39 30.11F  
 
CENTRAL MONTANA  
 
 
CITY SKY/WX TMP DP RH WIND PRES REMARKS
 
HAVRE CLOUDY 31 21 66 SW12 29.98F  
LEWISTOWN CLOUDY 26 11 52 SE5 30.02F  
GREAT FALLS CLOUDY 38 16 40 SW23 30.02F  
CUT BANK MOCLDY 39 23 52 SW41G54 29.89F  
HELENA MOCLDY 22 16 78 SE3 30.17F  
BUTTE MOCLDY 14 8 77 S7 30.17F  
BOZEMAN CLOUDY 12 7 80 CALM 30.20F  
 
WESTERN MONTANA  
 
 
CITY SKY/WX TMP DP RH WIND PRES REMARKS
 
MISSOULA CLOUDY 18 14 84 NW3 30.21F  
KALISPELL NOT AVBL  
 
NORTH DAKOTA  
 
 
CITY SKY/WX TMP DP RH WIND PRES REMARKS
 
WILLISTON PTCLDY 21 16 81 SW12 30.05F  
DICKINSON PTCLDY 28 14 55 SW12 30.03F  
MINOT CLOUDY 29 19 66 SW14 30.01F  
BISMARCK MOCLDY 14 11 87 CALM 30.11F  
 
SOUTHERN SASKATCHEWAN  
 
 
CITY SKY/WX TMP DP RH WIND PRES REMARKS
 
REGINA CLEAR 10 9 92 S5 29.99F  
ESTEVAN CLEAR 9 7 92 SW7 30.01F  
SWIFT CURRENT CLOUDY 25 16 68 S10 29.93F  
 
 
 
CLICK HERE TO GO TO PREVIOUS BULLETINS.

The Nexlab MT Page Main Text Page